Location: Stanford
(52.2833°N, 2.4333°W)
Time: 20:15:36
(UTC+00:00)

SKYMED 2 - Pass Details

Date: 22 January 2021
Orbit: 621 x 623 km, 97.9° (Epoch: 27 February)

Event Time Altitude Azimuth Distance (km) Brightness Sun altitude
Exits shadow 17:43:48 - 22° (NNE) 2,756 6.5 -9.8°
Reaches altitude 10° 17:45:46 10° 30° (NNE) 2,006 5.7 -10.1°
Maximum altitude 17:49:45 34° 96° (E) 1,039 4.2 -10.6°
Drops below altitude 10° 17:53:42 10° 162° (SSE) 1,990 6.2 -11.2°
Sets 17:56:03 0° 171° (S) 2,891 7.1 -11.6°
